This demonstration page uses our WeatherBlox Daily Observations layout. Learn more.

Left ArrowRight Arrow

Hourly Observations for March 17, 2016

Temp ( °F °C ) Dew Point ( °F °C ) Humidity (%) Winds ( mph kmh ) Pressure ( in mb ) Visibility ( mi km ) Precip ( " mm )
12:54 am 00:54 Clear 41 5 29 -1.7 62 62 W 8 13 30.00 1016 10 16 0.00 0.00
1:54 am 01:54 Clear 38 3.3 26 -3.3 62 62 Calm 29.99 1016 10 16 0.00 0.00
2:54 am 02:54 Clear 38 3.3 26 -3.3 62 62 SW 6 9 30.00 1016 10 16 0.00 0.00
3:54 am 03:54 Clear 34 1.1 26 -3.3 73 73 Calm 30.00 1016 10 16 0.00 0.00
4:54 am 04:54 Clear 28 -2.2 23 -5 81 81 S 3 6 30.01 1016 10 16 0.00 0.00
5:54 am 05:54 Clear 31 -0.6 24 -4.4 76 76 S 3 6 30.02 1017 10 16 0.00 0.00
6:54 am 06:54 Clear 33 0.6 24 -4.4 70 70 Calm 30.02 1017 10 16 0.00 0.00
7:54 am 07:54 Sunny 31 -0.6 24 -4.4 76 76 S 3 6 30.04 1017 10 16 0.00 0.00
8:54 am 08:54 Sunny 34 1.1 25 -3.9 70 70 WSW 5 7 30.03 1017 10 16 0.00 0.00
9:54 am 09:54 Sunny 42 5.6 28 -2.2 58 58 W 6 9 30.03 1017 10 16 0.00 0.00
10:54 am 10:54 Sunny 49 9.4 29 -1.7 46 46 W 6 9 30.03 1017 10 16 0.00 0.00
11:54 am 11:54 Sunny 54 12.2 25 -3.9 33 33 VRB 7 11 30.02 1017 10 16 0.00 0.00
12:54 pm 12:54 Sunny 55 12.8 24 -4.4 30 30 W 12 19 30.01 1016 10 16 0.00 0.00
1:54 pm 13:54 Sunny 57 13.9 25 -3.9 29 29 NW 15 24 30.00 1016 10 16 0.00 0.00
2:54 pm 14:54 Sunny 57 13.9 21 -6.1 25 25 NW 10 17 29.98 1015 10 16 0.00 0.00
3:54 pm 15:54 Mostly Sunny 57 13.9 18 -7.8 22 22 WNW 18 30 29.98 1015 10 16 0.00 0.00
4:54 pm 16:54 Sunny 57 13.9 17 -8.3 21 21 WNW 12 19 29.98 1015 10 16 0.00 0.00
5:54 pm 17:54 Mostly Sunny 56 13.3 19 -7.2 24 24 WNW 12 19 29.99 1016 10 16 0.00 0.00
6:54 pm 18:54 Cloudy 54 12.2 19 -7.2 25 25 NNW 24 39 30.01 1016 10 16 0.00 0.00
7:54 pm 19:54 Mostly Cloudy 52 11.1 22 -5.6 31 31 NW 9 15 30.04 1017 10 16 0.00 0.00
8:54 pm 20:54 Clear 50 10 23 -5 35 35 NNW 9 15 30.05 1018 10 16 0.00 0.00
9:54 pm 21:54 Clear 44 6.7 24 -4.4 45 45 N 8 13 30.06 1018 10 16 0.00 0.00
10:54 pm 22:54 Clear 41 5 24 -4.4 51 51 N 7 11 30.08 1019 10 16 0.00 0.00
11:54 pm 23:54 Clear 41 5 23 -5 49 49 NNE 8 13 30.10 1019 10 16 0.00 0.00

Powered by AerisWeather